Osceola, WI

3:04 AM CDT on August 26, 2016 (GMT -0500)
Simenstad Municipal

Weather History for KOEO - June, 2013

Change the Weather History Date:

Wednesday, June 19, 2013

  Actual Average (KMSP) Record (KMSP)
Temperature  
Mean Temperature 68 °F 70 °F  
Max Temperature 81 °F 80 °F 100 °F (1933)
Min Temperature 56 °F 60 °F 41 °F (1950)
Degree Days  
Heating Degree Days 0 1  
Month to date heating degree days 38  
Since 1 June heating degree days 38  
Since 1 July heating degree days 7574  
Cooling Degree Days 4 6  
Month to date cooling degree days 79  
Year to date cooling degree days 121  
Since 1 June cooling degree days 79  
Growing Degree Days 18 (Base 50)    
Moisture  
Dew Point 57 °F    
Average Humidity 66    
Maximum Humidity 88    
Minimum Humidity 48    
Precipitation  
Precipitation 0.00 in 0.15 in 4.13 in (2014)
Month to date precipitation 2.64  
Year to date precipitation 12.22  
Snow  
Snow 0.00 in 0.00 in 0.00 in ()
Month to date snowfall 0.0  
Since 1 June snowfall 0.0  
Since 1 July snowfall 54.4  
Snow Depth -    
Sea Level Pressure  
Sea Level Pressure 30.06 in    
Wind  
Wind Speed 5 mph (SE)    
Max Wind Speed 12 mph    
Max Gust Speed 16 mph    
Visibility 10 miles    
Events      
T = Trace of Precipitation, MM = Missing Value Source: NWS Daily Summary

Daily Weather History Graph

Daily Weather History Graph

Search for Another Location

Airport or City:

Trip Planner

Search our weather history database for the weather conditions in past years. The results will help you decide how hot, cold, wet, or windy it might be!

Date:

Astronomy

Jun. 19, 2013 Rise Set
Actual Time 5:22 AM CDT 9:02 PM CDT
Civil Twilight 4:44 AM CDT 9:39 PM CDT
Nautical Twilight 3:54 AM CDT 10:30 PM CDT
Astronomical Twilight 2:46 AM CDT 11:38 PM CDT
Moon 4:47 PM CDT (6/19) 2:17 AM CDT (6/19)
Length of Visible Light 16h 55m
Length of Day
15h 39m
Waxing Gibbous, 80% of the Moon is Illuminated
Jun 19
Waxing Gibbous
Jun 23
Full
Jun 29
Last Quarter
Jul 8
New
Jul 15
First Quarter

Hourly Weather History & Observations

Time (CDT) Temp. Heat Index Dew Point Humidity Pressure Visibility Wind Dir Wind Speed Gust Speed Precip Events Conditions
12:15 AM 57.6 °F - 53.6 °F 87% 30.09 in 10.0 mi Calm Calm - N/A   Clear
12:35 AM 58.3 °F - 52.5 °F 81% 30.09 in 10.0 mi Calm Calm - N/A   Clear
12:55 AM 58.6 °F - 52.0 °F 79% 30.08 in 10.0 mi East 3.5 mph - N/A   Clear
1:15 AM 57.7 °F - 51.8 °F 81% 30.09 in 10.0 mi ESE 4.6 mph - N/A   Clear
1:35 AM 57.7 °F - 51.8 °F 81% 30.09 in 10.0 mi East 3.5 mph - N/A   Scattered Clouds
1:55 AM 58.1 °F - 51.8 °F 80% 30.09 in 10.0 mi Calm Calm - N/A   Scattered Clouds
2:15 AM 58.1 °F - 52.0 °F 80% 30.09 in 10.0 mi ESE 3.5 mph - N/A   Scattered Clouds
2:35 AM 56.5 °F - 51.8 °F 84% 30.08 in 10.0 mi Calm Calm - N/A   Scattered Clouds
2:55 AM 57.7 °F - 52.2 °F 82% 30.08 in 10.0 mi SE 5.8 mph - N/A   Scattered Clouds
3:15 AM 57.6 °F - 52.7 °F 84% 30.07 in 10.0 mi ESE 5.8 mph - N/A   Scattered Clouds
3:35 AM 58.3 °F - 52.0 °F 80% 30.06 in 10.0 mi SE 4.6 mph - N/A   Clear
3:55 AM 57.2 °F - 52.2 °F 83% 30.07 in 10.0 mi ESE 5.8 mph - N/A   Clear
4:15 AM 57.6 °F - 52.5 °F 83% 30.07 in 10.0 mi ESE 4.6 mph - N/A   Clear
4:35 AM 58.1 °F - 52.7 °F 82% 30.08 in 10.0 mi East 5.8 mph - N/A   Clear
4:55 AM 57.0 °F - 52.7 °F 85% 30.09 in 10.0 mi ESE 5.8 mph - N/A   Scattered Clouds
5:15 AM 56.1 °F - 52.5 °F 88% 30.09 in 10.0 mi ESE 4.6 mph - N/A   Scattered Clouds
5:35 AM 57.0 °F - 52.7 °F 85% 30.09 in 10.0 mi SE 5.8 mph - N/A   Scattered Clouds
5:55 AM 57.4 °F - 52.9 °F 85% 30.10 in 10.0 mi SSE 4.6 mph - N/A   Clear
6:15 AM 58.5 °F - 53.2 °F 83% 30.11 in 10.0 mi Calm Calm - N/A   Clear
6:35 AM 60.1 °F - 54.0 °F 80% 30.11 in 10.0 mi Calm Calm - N/A   Clear
6:55 AM 61.0 °F - 54.3 °F 79% 30.11 in 10.0 mi East 3.5 mph - N/A   Clear
7:15 AM 61.5 °F - 54.5 °F 78% 30.12 in 10.0 mi ESE 3.5 mph - N/A   Clear
7:35 AM 62.6 °F - 54.7 °F 75% 30.12 in 10.0 mi SSE 6.9 mph - N/A   Clear
7:55 AM 63.7 °F - 54.9 °F 73% 30.11 in 10.0 mi SE 8.1 mph - N/A   Clear
8:15 AM 64.9 °F - 55.6 °F 72% 30.11 in 10.0 mi SSE 9.2 mph - N/A   Clear
8:35 AM 66.2 °F - 55.9 °F 69% 30.11 in 10.0 mi SSE 10.4 mph - N/A   Clear
8:55 AM 67.1 °F - 56.3 °F 68% 30.11 in 10.0 mi South 11.5 mph - N/A   Clear
9:15 AM 68.4 °F - 56.8 °F 67% 30.11 in 10.0 mi South 9.2 mph - N/A   Clear
9:35 AM 69.8 °F - 57.4 °F 65% 30.10 in 10.0 mi South 9.2 mph - N/A   Clear
9:55 AM 70.9 °F - 58.3 °F 64% 30.10 in 10.0 mi SSE 9.2 mph - N/A   Clear
10:15 AM 71.8 °F - 58.3 °F 62% 30.10 in 10.0 mi South 8.1 mph - N/A   Clear
10:35 AM 72.5 °F - 58.5 °F 61% 30.10 in 10.0 mi SSE 6.9 mph - N/A   Scattered Clouds
10:55 AM 72.9 °F - 58.8 °F 61% 30.09 in 10.0 mi South 11.5 mph - N/A   Scattered Clouds
11:15 AM 73.4 °F - 59.0 °F 61% 30.10 in 10.0 mi South 8.1 mph - N/A   Clear
11:35 AM 74.3 °F - 59.7 °F 60% 30.09 in 10.0 mi SE 9.2 mph - N/A   Clear
11:55 AM 74.3 °F - 58.6 °F 58% 30.08 in 10.0 mi South 9.2 mph - N/A   Clear
12:15 PM 74.5 °F - 59.2 °F 59% 30.07 in 10.0 mi SSW 6.9 mph - N/A   Clear
12:35 PM 75.2 °F - 59.7 °F 58% 30.06 in 10.0 mi SSE 8.1 mph - N/A   Clear
12:55 PM 76.5 °F - 60.3 °F 57% 30.06 in 10.0 mi SSE 4.6 mph - N/A   Clear
1:15 PM 77.4 °F - 60.6 °F 56% 30.06 in 7.0 mi SSE 10.4 mph - N/A   Clear
1:35 PM 77.9 °F - 59.7 °F 53% 30.05 in 10.0 mi SE 9.2 mph - N/A   Clear
1:55 PM 78.4 °F - 59.9 °F 53% 30.05 in 10.0 mi SSE 8.1 mph - N/A   Scattered Clouds
2:15 PM 79.9 °F - 60.4 °F 51% 30.05 in 10.0 mi SE 8.1 mph - N/A   Scattered Clouds
2:35 PM 78.8 °F - 59.7 °F 52% 30.04 in 10.0 mi ESE 6.9 mph - N/A   Clear
2:55 PM 79.3 °F - 59.4 °F 50% 30.04 in 10.0 mi ESE 9.2 mph - N/A   Scattered Clouds
3:15 PM 79.5 °F - 58.3 °F 48% 30.04 in 10.0 mi SSE 6.9 mph - N/A   Scattered Clouds
3:35 PM 79.0 °F - 59.0 °F 50% 30.03 in 10.0 mi SSE 9.2 mph - N/A   Mostly Cloudy
3:55 PM 78.8 °F - 59.2 °F 51% 30.03 in 10.0 mi SSE 9.2 mph 16.1 mph N/A   Mostly Cloudy
4:15 PM 79.9 °F - 60.3 °F 51% 30.03 in 10.0 mi SSE 10.4 mph - N/A   Scattered Clouds
4:35 PM 81.3 °F 81.9 °F 60.3 °F 49% 30.02 in 10.0 mi SSE 9.2 mph - N/A   Mostly Cloudy
4:55 PM 80.6 °F 81.2 °F 59.7 °F 49% 30.02 in 10.0 mi SSE 9.2 mph - N/A   Scattered Clouds
5:15 PM 81.0 °F 81.6 °F 59.9 °F 49% 30.01 in 10.0 mi SSE 11.5 mph - N/A   Scattered Clouds
5:35 PM 80.1 °F 80.9 °F 59.9 °F 50% 30.01 in 10.0 mi SSE 11.5 mph - N/A   Mostly Cloudy
5:55 PM 81.0 °F 81.5 °F 59.7 °F 48% 30.01 in 10.0 mi SE 9.2 mph - N/A   Mostly Cloudy
6:15 PM 80.8 °F 81.4 °F 59.7 °F 49% 30.01 in 10.0 mi SE 9.2 mph - N/A   Scattered Clouds
6:35 PM 80.1 °F 80.8 °F 59.5 °F 49% 30.00 in 10.0 mi SE 9.2 mph - N/A   Clear
6:55 PM 79.9 °F - 59.7 °F 50% 30.00 in 10.0 mi SE 9.2 mph - N/A   Clear
7:15 PM 79.7 °F - 58.8 °F 49% 30.00 in 10.0 mi SE 8.1 mph - N/A   Clear
7:35 PM 79.0 °F - 59.2 °F 51% 30.00 in 10.0 mi SE 9.2 mph - N/A   Clear
7:55 PM 78.1 °F - 60.1 °F 54% 30.00 in 10.0 mi ESE 9.2 mph - N/A   Clear
8:15 PM 76.8 °F - 60.8 °F 58% 30.00 in 10.0 mi SE 6.9 mph - N/A   Clear
8:35 PM 75.7 °F - 60.8 °F 60% 30.00 in 10.0 mi SE 8.1 mph - N/A   Clear
8:55 PM 74.5 °F - 60.6 °F 62% 30.00 in 10.0 mi SE 5.8 mph - N/A   Clear
9:15 PM 73.0 °F - 60.8 °F 65% 30.00 in 10.0 mi SE 5.8 mph - N/A   Clear
9:35 PM 72.5 °F - 60.8 °F 67% 30.01 in 10.0 mi SE 5.8 mph - N/A   Clear
9:55 PM 70.5 °F - 61.0 °F 72% 30.01 in 10.0 mi ESE 6.9 mph - N/A   Clear
10:15 PM 70.0 °F - 60.8 °F 73% 30.02 in 10.0 mi ESE 5.8 mph - N/A   Clear
10:35 PM 70.0 °F - 60.8 °F 73% 30.02 in 10.0 mi ESE 6.9 mph - N/A   Clear
10:55 PM 71.4 °F - 60.1 °F 67% 30.02 in 10.0 mi SE 6.9 mph - N/A   Scattered Clouds
11:15 PM 71.1 °F - 60.1 °F 68% 30.02 in 10.0 mi SE 8.1 mph - N/A   Scattered Clouds
11:35 PM 71.1 °F - 59.7 °F 67% 30.03 in 10.0 mi SE 8.1 mph - N/A   Scattered Clouds
11:55 PM 70.7 °F - 59.9 °F 69% 30.03 in 10.0 mi SE 6.9 mph - N/A   Clear